| time (UTC) | temp F | wind direction | speed MPH | gust MPH | rain 1hr in | rain 24hr in | rain mn in | humidity % | barometer mb |
| 20260506012349 | 57 | 180 | 5.0 | 12.0 | 0.00 | 0.00 | 0.00 | 84 | 1012.7 |
| 20260506011846 | 57 | 202 | 5.0 | 12.0 | 0.00 | 0.00 | 0.00 | 84 | 1012.7 |
| 20260506011345 | 57 | 189 | 5.0 | 14.0 | 0.00 | 0.00 | 0.00 | 85 | 1012.6 |
| 20260506010845 | 57 | 172 | 5.0 | 14.0 | 0.00 | 0.00 | 0.00 | 84 | 1012.5 |
| 20260506010345 | 57 | 130 | 5.0 | 14.0 | 0.00 | 0.00 | 0.00 | 84 | 1012.4 |
| 20260506005847 | 57 | 172 | 5.0 | 12.0 | 0.00 | 0.00 | 0.00 | 84 | 1012.4 |
| 20260506005344 | 57 | 154 | 5.0 | 10.0 | 0.00 | 0.00 | 0.00 | 83 | 1012.2 |
| 20260506004843 | 57 | 184 | 6.0 | 15.0 | 0.00 | 0.00 | 0.00 | 83 | 1012.0 |
| 20260506004341 | 57 | 190 | 6.0 | 15.0 | 0.00 | 0.00 | 0.00 | 82 | 1011.9 |
| 20260506003842 | 57 | 150 | 7.0 | 14.0 | 0.00 | 0.00 | 0.00 | 81 | 1011.7 |
| 20260506003342 | 57 | 144 | 7.0 | 13.0 | 0.00 | 0.00 | 0.00 | 81 | 1011.5 |
| 20260506002840 | 57 | 180 | 7.0 | 14.0 | 0.00 | 0.00 | 0.00 | 80 | 1011.5 |
| 20260506002340 | 57 | 172 | 6.0 | 14.0 | 0.00 | 0.00 | 0.00 | 80 | 1011.5 |
| 20260506001842 | 57 | 164 | 6.0 | 15.0 | 0.00 | 0.00 | 0.00 | 79 | 1011.5 |
| 20260506001139 | 57 | 171 | 6.0 | 12.0 | 0.00 | 0.00 | 0.00 | 79 | 1011.5 |
| 20260506000639 | 57 | 165 | 6.0 | 13.0 | 0.00 | 0.00 | 0.00 | 79 | 1011.5 |
| 20260506000139 | 57 | 109 | 6.0 | 15.0 | 0.00 | 0.00 | 0.00 | 79 | 1011.5 |
| 20260505235637 | 58 | 207 | 6.0 | 15.0 | 0.00 | 0.00 | 0.00 | 78 | 1011.4 |
| 20260505235135 | 58 | 187 | 7.0 | 14.0 | 0.00 | 0.00 | 0.00 | 78 | 1011.3 |
| 20260505234636 | 58 | 217 | 6.0 | 15.0 | 0.00 | 0.00 | 0.00 | 77 | 1011.4 |
| 20260505234135 | 58 | 172 | 6.0 | 15.0 | 0.00 | 0.00 | 0.00 | 77 | 1011.3 |
| 20260505233637 | 58 | 205 | 6.0 | 16.0 | 0.00 | 0.00 | 0.00 | 76 | 1011.2 |
| 20260505233107 | 58 | 169 | 6.0 | 17.0 | 0.00 | 0.00 | 0.00 | 76 | 1011.1 |
| 20260505232607 | 58 | 187 | 6.0 | 16.0 | 0.00 | 0.00 | 0.00 | 76 | 1011.1 |
| 20260505232106 | 58 | 211 | 6.0 | 11.0 | 0.00 | 0.00 | 0.00 | 77 | 1011.1 |
| 20260505231605 | 58 | 254 | 6.0 | 13.0 | 0.00 | 0.00 | 0.00 | 77 | 1011.0 |
| 20260505231105 | 58 | 143 | 6.0 | 14.0 | 0.00 | 0.00 | 0.00 | 77 | 1011.1 |
| 20260505230606 | 58 | 153 | 6.0 | 14.0 | 0.00 | 0.00 | 0.00 | 78 | 1011.2 |
| 20260505230106 | 58 | 151 | 6.0 | 16.0 | 0.00 | 0.00 | 0.00 | 79 | 1011.0 |
| 20260505225608 | 58 | 273 | 7.0 | 16.0 | 0.00 | 0.00 | 0.00 | 79 | 1010.9 |
| 20260505225103 | 58 | 157 | 7.0 | 15.0 | 0.00 | 0.00 | 0.00 | 80 | 1010.8 |
| 20260505224601 | 58 | 163 | 7.0 | 15.0 | 0.00 | 0.00 | 0.00 | 80 | 1010.8 |
| 20260505224103 | 58 | 165 | 6.0 | 23.0 | 0.00 | 0.00 | 0.00 | 80 | 1010.8 |
| 20260505223602 | 59 | 158 | 6.0 | 23.0 | 0.00 | 0.00 | 0.00 | 80 | 1010.8 |
| 20260505223103 | 59 | 161 | 6.0 | 16.0 | 0.00 | 0.00 | 0.00 | 81 | 1010.8 |
| 20260505222602 | 59 | 167 | 6.0 | 12.0 | 0.00 | 0.00 | 0.00 | 81 | 1010.7 |
| 20260505222101 | 59 | 219 | 7.0 | 18.0 | 0.00 | 0.00 | 0.00 | 80 | 1010.7 |
| 20260505221601 | 59 | 169 | 7.0 | 18.0 | 0.00 | 0.00 | 0.00 | 80 | 1010.5 |
| 20260505221059 | 59 | 282 | 7.0 | 18.0 | 0.00 | 0.00 | 0.00 | 80 | 1010.6 |
| 20260505220557 | 59 | 166 | 7.0 | 16.0 | 0.00 | 0.00 | 0.00 | 80 | 1010.6 |
| 20260505220058 | 60 | 192 | 7.0 | 16.0 | 0.00 | 0.00 | 0.00 | 80 | 1010.5 |
| 20260505215556 | 60 | 163 | 7.0 | 16.0 | 0.00 | 0.00 | 0.00 | 79 | 1010.6 |
| 20260505215054 | 60 | 186 | 7.0 | 16.0 | 0.00 | 0.00 | 0.00 | 79 | 1010.7 |
| 20260505214553 | 60 | 164 | 6.0 | 14.0 | 0.00 | 0.00 | 0.00 | 79 | 1010.6 |
| 20260505214054 | 60 | 181 | 7.0 | 19.0 | 0.00 | 0.00 | 0.00 | 79 | 1010.6 |
| 20260505213552 | 60 | 149 | 7.0 | 19.0 | 0.00 | 0.00 | 0.00 | 79 | 1010.7 |
| 20260505213051 | 60 | 217 | 7.0 | 15.0 | 0.00 | 0.00 | 0.00 | 79 | 1010.7 |
| 20260505212551 | 60 | 159 | 6.0 | 17.0 | 0.00 | 0.00 | 0.00 | 79 | 1010.6 |
| 20260505212050 | 60 | 212 | 7.0 | 17.0 | 0.00 | 0.00 | 0.00 | 80 | 1010.6 |
| 20260505211551 | 60 | 183 | 8.0 | 18.0 | 0.00 | 0.00 | 0.00 | 80 | 1010.4 |
| 20260505211050 | 60 | 197 | 7.0 | 18.0 | 0.00 | 0.00 | 0.00 | 79 | 1010.5 |
| 20260505210547 | 60 | 148 | 7.0 | 15.0 | 0.00 | 0.00 | 0.00 | 79 | 1010.4 |
| 20260505210049 | 60 | 184 | 7.0 | 15.0 | 0.00 | 0.00 | 0.00 | 79 | 1010.5 |
| 20260505205546 | 60 | 340 | 7.0 | 14.0 | 0.00 | 0.00 | 0.00 | 79 | 1010.4 |
| 20260505205048 | 60 | 167 | 8.0 | 21.0 | 0.00 | 0.00 | 0.00 | 79 | 1010.3 |
| 20260505204547 | 60 | 149 | 8.0 | 21.0 | 0.00 | 0.00 | 0.00 | 79 | 1010.3 |
| 20260505204045 | 60 | 152 | 7.0 | 15.0 | 0.00 | 0.00 | 0.00 | 79 | 1010.3 |
| 20260505203546 | 60 | 161 | 8.0 | 17.0 | 0.00 | 0.00 | 0.00 | 79 | 1010.4 |
| 20260505203045 | 60 | 188 | 9.0 | 20.0 | 0.00 | 0.00 | 0.00 | 79 | 1010.3 |
| 20260505202546 | 60 | 187 | 8.0 | 20.0 | 0.00 | 0.00 | 0.00 | 79 | 1010.4 |
| 20260505202047 | 60 | 144 | 8.0 | 16.0 | 0.00 | 0.00 | 0.00 | 79 | 1010.4 |
| 20260505201542 | 60 | 184 | 8.0 | 16.0 | 0.00 | 0.00 | 0.00 | 79 | 1010.4 |
| 20260505201040 | 60 | 165 | 7.0 | 15.0 | 0.00 | 0.00 | 0.00 | 79 | 1010.4 |
| 20260505200544 | 60 | 202 | 8.0 | 19.0 | 0.00 | 0.00 | 0.00 | 78 | 1010.5 |
| 20260505200040 | 60 | 202 | 8.0 | 19.0 | 0.00 | 0.00 | 0.00 | 78 | 1010.5 |
| 20260505195540 | 61 | 144 | 8.0 | 16.0 | 0.00 | 0.00 | 0.00 | 77 | 1010.6 |
| 20260505195039 | 61 | 212 | 7.0 | 18.0 | 0.00 | 0.00 | 0.00 | 77 | 1010.5 |
| 20260505194538 | 61 | 143 | 7.0 | 18.0 | 0.00 | 0.00 | 0.00 | 77 | 1010.6 |
| 20260505194040 | 61 | 150 | 6.0 | 14.0 | 0.00 | 0.00 | 0.00 | 77 | 1010.5 |
| 20260505193537 | 62 | 164 | 6.0 | 12.0 | 0.00 | 0.00 | 0.00 | 77 | 1010.6 |
| 20260505193038 | 61 | 163 | 7.0 | 19.0 | 0.00 | 0.00 | 0.00 | 78 | 1010.6 |
| 20260505192535 | 61 | 161 | 8.0 | 19.0 | 0.00 | 0.00 | 0.00 | 78 | 1010.7 |
| 20260505192036 | 61 | 179 | 7.0 | 16.0 | 0.00 | 0.00 | 0.00 | 77 | 1010.8 |
| 20260505191534 | 61 | 215 | 7.0 | 14.0 | 0.00 | 0.00 | 0.00 | 77 | 1010.7 |
| 20260505191034 | 62 | 173 | 6.0 | 12.0 | 0.00 | 0.00 | 0.00 | 76 | 1010.7 |
| 20260505190533 | 62 | 169 | 7.0 | 14.0 | 0.00 | 0.00 | 0.00 | 77 | 1010.7 |
| 20260505190033 | 61 | 167 | 7.0 | 14.0 | 0.00 | 0.00 | 0.00 | 76 | 1010.7 |
| 20260505185533 | 62 | 149 | 7.0 | 21.0 | 0.00 | 0.00 | 0.00 | 77 | 1010.8 |
| 20260505185034 | 62 | 167 | 6.0 | 21.0 | 0.00 | 0.00 | 0.00 | 76 | 1010.7 |
| 20260505184532 | 62 | 190 | 6.0 | 12.0 | 0.00 | 0.00 | 0.00 | 75 | 1010.7 |
| 20260505184030 | 62 | 275 | 6.0 | 17.0 | 0.00 | 0.00 | 0.00 | 76 | 1010.7 |
| 20260505183530 | 62 | 194 | 6.0 | 17.0 | 0.00 | 0.00 | 0.00 | 75 | 1010.7 |
| 20260505183029 | 62 | 264 | 7.0 | 15.0 | 0.00 | 0.00 | 0.00 | 76 | 1010.8 |
| 20260505182530 | 62 | 165 | 7.0 | 15.0 | 0.00 | 0.00 | 0.00 | 76 | 1010.8 |
| 20260505182027 | 62 | 171 | 7.0 | 15.0 | 0.00 | 0.00 | 0.00 | 77 | 1010.8 |
| 20260505181527 | 62 | 148 | 7.0 | 14.0 | 0.00 | 0.00 | 0.00 | 77 | 1010.9 |
| 20260505181026 | 62 | 199 | 7.0 | 14.0 | 0.00 | 0.00 | 0.00 | 76 | 1010.9 |
| 20260505180525 | 62 | 171 | 7.0 | 13.0 | 0.00 | 0.00 | 0.00 | 77 | 1011.0 |
| 20260505180025 | 62 | 168 | 7.0 | 16.0 | 0.00 | 0.00 | 0.00 | 77 | 1011.0 |
| 20260505175523 | 62 | 159 | 7.0 | 16.0 | 0.00 | 0.00 | 0.00 | 75 | 1011.0 |
| 20260505175026 | 62 | 196 | 8.0 | 16.0 | 0.00 | 0.00 | 0.00 | 77 | 1011.1 |
| 20260505174523 | 62 | 144 | 7.0 | 16.0 | 0.00 | 0.00 | 0.00 | 76 | 1011.1 |
| 20260505174023 | 62 | 154 | 7.0 | 12.0 | 0.00 | 0.00 | 0.00 | 75 | 1011.2 |
| 20260505173522 | 62 | 153 | 7.0 | 14.0 | 0.00 | 0.00 | 0.00 | 77 | 1011.3 |
| 20260505173022 | 62 | 155 | 7.0 | 14.0 | 0.00 | 0.00 | 0.00 | 77 | 1011.4 |
| 20260505172520 | 61 | 236 | 7.0 | 16.0 | 0.00 | 0.00 | 0.00 | 77 | 1011.4 |
| 20260505172019 | 61 | 153 | 7.0 | 16.0 | 0.00 | 0.00 | 0.00 | 77 | 1011.4 |
| 20260505171520 | 61 | 167 | 8.0 | 15.0 | 0.00 | 0.00 | 0.00 | 77 | 1011.5 |
| 20260505171019 | 61 | 162 | 8.0 | 15.0 | 0.00 | 0.00 | 0.00 | 77 | 1011.4 |
| 20260505170519 | 62 | 241 | 7.0 | 17.0 | 0.00 | 0.00 | 0.00 | 77 | 1011.5 |
| 20260505170017 | 62 | 168 | 7.0 | 17.0 | 0.00 | 0.00 | 0.00 | 76 | 1011.3 |
| 20260505165516 | 62 | 166 | 7.0 | 14.0 | 0.00 | 0.00 | 0.00 | 77 | 1011.4 |
| 20260505165017 | 61 | 183 | 8.0 | 14.0 | 0.00 | 0.00 | 0.00 | 77 | 1011.5 |
| 20260505164515 | 62 | 164 | 7.0 | 15.0 | 0.00 | 0.00 | 0.00 | 77 | 1011.5 |
| 20260505164014 | 62 | 148 | 6.0 | 15.0 | 0.00 | 0.00 | 0.00 | 78 | 1011.6 |
| 20260505163515 | 62 | 198 | 7.0 | 15.0 | 0.00 | 0.00 | 0.00 | 77 | 1011.7 |
| 20260505163012 | 61 | 136 | 7.0 | 15.0 | 0.00 | 0.00 | 0.00 | 78 | 1011.7 |
| 20260505162511 | 62 | 169 | 7.0 | 18.0 | 0.00 | 0.00 | 0.00 | 77 | 1011.7 |
| 20260505162013 | 62 | 217 | 6.0 | 18.0 | 0.00 | 0.00 | 0.00 | 78 | 1011.7 |
| 20260505161511 | 61 | 160 | 6.0 | 14.0 | 0.00 | 0.00 | 0.00 | 78 | 1011.8 |
| 20260505161011 | 61 | 186 | 7.0 | 16.0 | 0.00 | 0.00 | 0.00 | 79 | 1011.7 |
| 20260505160511 | 61 | 165 | 7.0 | 16.0 | 0.00 | 0.00 | 0.00 | 78 | 1011.8 |
| 20260505153008 | 61 | 153 | 5.0 | 11.0 | 0.00 | 0.00 | 0.00 | 78 | 1012.0 |
| 20260505152505 | 61 | 120 | 5.0 | 13.0 | 0.00 | 0.00 | 0.00 | 78 | 1012.2 |
| 20260505152007 | 60 | 160 | 5.0 | 13.0 | 0.00 | 0.00 | 0.00 | 79 | 1012.2 |
| 20260505151505 | 60 | 134 | 6.0 | 15.0 | 0.00 | 0.00 | 0.00 | 79 | 1012.1 |
| 20260505151004 | 60 | 202 | 5.0 | 15.0 | 0.00 | 0.00 | 0.00 | 79 | 1012.1 |
| 20260505150502 | 60 | 159 | 6.0 | 11.0 | 0.00 | 0.00 | 0.00 | 79 | 1012.1 |
| 20260505140457 | 60 | 163 | 5.0 | 14.0 | 0.00 | 0.00 | 0.00 | 79 | 1011.6 |
| 20260505124945 | 58 | 165 | 5.0 | 12.0 | 0.00 | 0.00 | 0.00 | 83 | 1011.7 |
| 20260505124444 | 57 | 158 | 6.0 | 15.0 | 0.00 | 0.00 | 0.00 | 83 | 1011.6 |
| 20260505123943 | 57 | 172 | 6.0 | 15.0 | 0.00 | 0.00 | 0.00 | 83 | 1011.7 |
| 20260505123444 | 57 | 155 | 6.0 | 13.0 | 0.00 | 0.00 | 0.00 | 83 | 1011.8 |
| 20260505122942 | 57 | 180 | 6.0 | 13.0 | 0.00 | 0.00 | 0.00 | 84 | 1011.8 |
| 20260505122444 | 57 | 183 | 6.0 | 12.0 | 0.00 | 0.00 | 0.00 | 84 | 1011.7 |
| 20260505121943 | 56 | 158 | 6.0 | 15.0 | 0.00 | 0.00 | 0.00 | 84 | 1011.8 |
| 20260505121442 | 56 | 221 | 6.0 | 17.0 | 0.00 | 0.00 | 0.00 | 84 | 1011.8 |
| 20260505120941 | 56 | 145 | 6.0 | 17.0 | 0.00 | 0.00 | 0.00 | 84 | 1011.8 |
| 20260505120439 | 56 | 174 | 6.0 | 14.0 | 0.00 | 0.00 | 0.00 | 84 | 1011.9 |
| 20260505115940 | 56 | 161 | 6.0 | 14.0 | 0.00 | 0.00 | 0.00 | 85 | 1011.9 |
| 20260505115438 | 56 | 156 | 5.0 | 11.0 | 0.00 | 0.00 | 0.00 | 85 | 1011.8 |
| 20260505114938 | 56 | 163 | 5.0 | 10.0 | 0.00 | 0.00 | 0.00 | 85 | 1011.9 |
| 20260505114439 | 56 | 165 | 5.0 | 10.0 | 0.00 | 0.00 | 0.00 | 85 | 1011.8 |
| 20260505113937 | 55 | 180 | 5.0 | 9.0 | 0.00 | 0.00 | 0.00 | 86 | 1011.9 |
| 20260505113434 | 55 | 156 | 5.0 | 11.0 | 0.00 | 0.00 | 0.00 | 86 | 1011.9 |
| 20260505112935 | 55 | 179 | 5.0 | 11.0 | 0.00 | 0.00 | 0.00 | 87 | 1011.9 |
| 20260505112435 | 55 | 163 | 5.0 | 11.0 | 0.00 | 0.00 | 0.00 | 87 | 1011.8 |
| 20260505111937 | 54 | 153 | 5.0 | 10.0 | 0.00 | 0.00 | 0.00 | 88 | 1011.8 |
| 20260505111436 | 54 | 153 | 4.0 | 10.0 | 0.00 | 0.00 | 0.00 | 88 | 1011.8 |
| 20260505110935 | 54 | 182 | 4.0 | 9.0 | 0.00 | 0.00 | 0.00 | 88 | 1011.8 |
| 20260505110435 | 53 | 176 | 5.0 | 9.0 | 0.00 | 0.00 | 0.00 | 89 | 1011.7 |
| 20260505101926 | 53 | 151 | 5.0 | 10.0 | 0.00 | 0.00 | 0.00 | 89 | 1011.6 |
| 20260505101425 | 52 | 202 | 5.0 | 9.0 | 0.00 | 0.00 | 0.00 | 89 | 1011.5 |
| 20260505100926 | 52 | 166 | 5.0 | 10.0 | 0.00 | 0.00 | 0.00 | 89 | 1011.5 |
| 20260505100424 | 52 | 153 | 5.0 | 13.0 | 0.00 | 0.00 | 0.00 | 89 | 1011.5 |
| 20260505095924 | 52 | 138 | 5.0 | 13.0 | 0.00 | 0.00 | 0.00 | 89 | 1011.5 |
| 20260505095425 | 52 | 181 | 4.0 | 10.0 | 0.00 | 0.00 | 0.00 | 89 | 1011.5 |
| 20260505094922 | 52 | 138 | 3.0 | 10.0 | 0.00 | 0.00 | 0.00 | 89 | 1011.5 |
| 20260505094422 | 52 | 155 | 4.0 | 10.0 | 0.00 | 0.00 | 0.00 | 89 | 1011.5 |
| 20260505093922 | 52 | 196 | 4.0 | 9.0 | 0.00 | 0.00 | 0.00 | 89 | 1011.5 |
| 20260505093420 | 52 | 160 | 4.0 | 9.0 | 0.00 | 0.00 | 0.00 | 89 | 1011.4 |
| 20260505092920 | 52 | 155 | 3.0 | 8.0 | 0.00 | 0.00 | 0.00 | 89 | 1011.3 |
| 20260505092419 | 52 | 134 | 3.0 | 8.0 | 0.00 | 0.00 | 0.00 | 89 | 1011.3 |
| 20260505091917 | 52 | 164 | 2.0 | 7.0 | 0.00 | 0.00 | 0.00 | 89 | 1011.4 |
| 20260505091418 | 52 | 155 | 3.0 | 7.0 | 0.00 | 0.00 | 0.00 | 90 | 1011.4 |
| 20260505090917 | 51 | 172 | 2.0 | 6.0 | 0.00 | 0.00 | 0.00 | 90 | 1011.4 |
| 20260505090418 | 51 | 175 | 2.0 | 5.0 | 0.00 | 0.00 | 0.00 | 90 | 1011.3 |
| 20260505085918 | 51 | 152 | 2.0 | 5.0 | 0.00 | 0.00 | 0.00 | 90 | 1011.4 |
| 20260505085416 | 51 | 207 | 2.0 | 6.0 | 0.00 | 0.00 | 0.00 | 90 | 1011.4 |
| 20260505084915 | 51 | 149 | 2.0 | 6.0 | 0.00 | 0.00 | 0.00 | 90 | 1011.4 |
| 20260505084412 | 51 | 156 | 2.0 | 7.0 | 0.00 | 0.00 | 0.00 | 90 | 1011.3 |
| 20260505083912 | 51 | 196 | 2.0 | 7.0 | 0.00 | 0.00 | 0.00 | 91 | 1011.3 |
| 20260505083407 | 51 | 171 | 2.0 | 5.0 | 0.00 | 0.00 | 0.00 | 91 | 1011.4 |
| 20260505082904 | 51 | 163 | 2.0 | 5.0 | 0.00 | 0.00 | 0.00 | 91 | 1011.4 |
| 20260505082347 | 51 | 139 | 2.0 | 5.0 | 0.00 | 0.00 | 0.00 | 91 | 1011.5 |
| 20260505081844 | 51 | 177 | 2.0 | 5.0 | 0.00 | 0.00 | 0.00 | 91 | 1011.5 |
| 20260505081344 | 51 | 153 | 2.0 | 5.0 | 0.00 | 0.00 | 0.00 | 91 | 1011.6 |
| 20260505080842 | 51 | 150 | 2.0 | 7.0 | 0.00 | 0.00 | 0.00 | 91 | 1011.6 |
| 20260505080344 | 51 | 173 | 3.0 | 7.0 | 0.00 | 0.00 | 0.00 | 91 | 1011.7 |
| 20260505075834 | 51 | 160 | 3.0 | 7.0 | 0.00 | 0.00 | 0.00 | 91 | 1011.6 |
| 20260505075334 | 51 | 173 | 2.0 | 7.0 | 0.00 | 0.00 | 0.00 | 91 | 1011.7 |
| 20260505074831 | 51 | 225 | 2.0 | 6.0 | 0.00 | 0.00 | 0.00 | 91 | 1011.7 |
| 20260505074335 | 51 | 161 | 2.0 | 6.0 | 0.00 | 0.00 | 0.00 | 90 | 1011.7 |
| 20260505073821 | 52 | 123 | 2.0 | 5.0 | 0.00 | 0.00 | 0.00 | 90 | 1011.6 |
| 20260505073325 | 52 | 161 | 2.0 | 5.0 | 0.00 | 0.00 | 0.00 | 90 | 1011.7 |
| 20260505072819 | 52 | 194 | 2.0 | 6.0 | 0.00 | 0.00 | 0.00 | 90 | 1011.7 |
| 20260505072318 | 52 | 153 | 3.0 | 7.0 | 0.00 | 0.00 | 0.00 | 90 | 1011.6 |
| 20260505071818 | 52 | 154 | 3.0 | 7.0 | 0.00 | 0.00 | 0.00 | 90 | 1011.7 |
| 20260505071317 | 52 | 169 | 3.0 | 6.0 | 0.00 | 0.00 | 0.00 | 90 | 1011.6 |
| 20260505070815 | 52 | 191 | 3.0 | 7.0 | 0.00 | 0.00 | 0.00 | 89 | 1011.6 |
| 20260505070316 | 52 | 130 | 3.0 | 12.0 | 0.00 | 0.00 | 0.00 | 89 | 1011.6 |
| 20260505065815 | 52 | 171 | 3.0 | 12.0 | 0.00 | 0.00 | 0.00 | 90 | 1011.7 |
| 20260505065315 | 52 | 209 | 3.0 | 8.0 | 0.00 | 0.00 | 0.00 | 90 | 1011.6 |
| 20260505064810 | 52 | 168 | 3.0 | 10.0 | 0.00 | 0.00 | 0.00 | 90 | 1011.5 |
| 20260505064311 | 52 | 203 | 2.0 | 10.0 | 0.00 | 0.00 | 0.00 | 90 | 1011.5 |
| 20260505063804 | 52 | 250 | 2.0 | 8.0 | 0.00 | 0.00 | 0.00 | 90 | 1011.4 |
| 20260505063305 | 52 | 201 | 2.0 | 8.0 | 0.00 | 0.00 | 0.00 | 90 | 1011.4 |
| 20260505062804 | 52 | 194 | 2.0 | 8.0 | 0.00 | 0.00 | 0.00 | 90 | 1011.4 |
| 20260505062304 | 52 | 154 | 3.0 | 8.0 | 0.00 | 0.00 | 0.00 | 90 | 1011.5 |
| 20260505061805 | 52 | 197 | 2.0 | 7.0 | 0.00 | 0.00 | 0.00 | 90 | 1011.5 |
| 20260505061304 | 52 | 167 | 2.0 | 8.0 | 0.00 | 0.00 | 0.00 | 89 | 1011.5 |
| 20260505060804 | 52 | 186 | 2.0 | 8.0 | 0.00 | 0.00 | 0.00 | 89 | 1011.4 |
| 20260505060304 | 52 | 239 | 2.0 | 5.0 | 0.00 | 0.00 | 0.00 | 89 | 1011.5 |
| 20260505055803 | 52 | 225 | 2.0 | 6.0 | 0.00 | 0.00 | 0.00 | 89 | 1011.5 |
| 20260505055303 | 52 | 185 | 3.0 | 7.0 | 0.00 | 0.00 | 0.00 | 89 | 1011.5 |
| 20260505054802 | 52 | 169 | 3.0 | 8.0 | 0.00 | 0.00 | 0.00 | 89 | 1011.6 |
| 20260505054257 | 52 | 156 | 3.0 | 8.0 | 0.00 | 0.00 | 0.00 | 88 | 1011.5 |
| 20260505053759 | 52 | 177 | 3.0 | 7.0 | 0.00 | 0.00 | 0.00 | 88 | 1011.6 |
| 20260505053257 | 52 | 191 | 3.0 | 8.0 | 0.00 | 0.00 | 0.00 | 88 | 1011.6 |
| 20260505052756 | 52 | 148 | 3.0 | 8.0 | 0.00 | 0.00 | 0.00 | 88 | 1011.6 |
| 20260505052256 | 52 | 206 | 3.0 | 8.0 | 0.00 | 0.00 | 0.00 | 88 | 1011.6 |
| 20260505051753 | 52 | 137 | 3.0 | 8.0 | 0.00 | 0.00 | 0.00 | 88 | 1011.6 |
| 20260505051253 | 52 | 180 | 3.0 | 8.0 | 0.00 | 0.00 | 0.00 | 87 | 1011.6 |
| 20260505050753 | 52 | 211 | 2.0 | 9.0 | 0.00 | 0.00 | 0.00 | 87 | 1011.5 |
| 20260505050252 | 52 | 171 | 3.0 | 9.0 | 0.00 | 0.00 | 0.00 | 87 | 1011.6 |
| 20260505041750 | 52 | 164 | 4.0 | 9.0 | 0.00 | 0.00 | 0.00 | 86 | 1011.9 |
| 20260505041250 | 52 | 184 | 4.0 | 10.0 | 0.00 | 0.00 | 0.00 | 85 | 1011.9 |
| 20260505040751 | 52 | 165 | 4.0 | 10.0 | 0.00 | 0.00 | 0.00 | 85 | 1012.0 |
| 20260505040250 | 52 | 169 | 4.0 | 9.0 | 0.00 | 0.00 | 0.00 | 85 | 1012.0 |
| 20260505035748 | 52 | 216 | 4.0 | 9.0 | 0.00 | 0.00 | 0.00 | 85 | 1012.0 |
| 20260505035247 | 52 | 162 | 4.0 | 10.0 | 0.00 | 0.00 | 0.00 | 84 | 1012.1 |
| 20260505034749 | 52 | 213 | 4.0 | 11.0 | 0.00 | 0.00 | 0.00 | 84 | 1012.1 |
| 20260505034246 | 52 | 161 | 4.0 | 11.0 | 0.00 | 0.00 | 0.00 | 84 | 1012.1 |
| 20260505033745 | 52 | 153 | 3.0 | 8.0 | 0.00 | 0.00 | 0.00 | 84 | 1012.1 |
| 20260505033245 | 52 | 163 | 3.0 | 7.0 | 0.00 | 0.00 | 0.00 | 84 | 1012.1 |
| 20260505032747 | 53 | 227 | 4.0 | 9.0 | 0.00 | 0.00 | 0.00 | 84 | 1012.0 |
| 20260505032245 | 53 | 182 | 4.0 | 11.0 | 0.00 | 0.00 | 0.00 | 83 | 1011.9 |
| 20260505031742 | 53 | 186 | 4.0 | 11.0 | 0.00 | 0.00 | 0.00 | 83 | 1011.9 |
| 20260505031241 | 53 | 198 | 5.0 | 12.0 | 0.00 | 0.00 | 0.00 | 83 | 1012.0 |
| 20260505030742 | 53 | 255 | 4.0 | 15.0 | 0.00 | 0.00 | 0.00 | 83 | 1012.0 |
| 20260505030240 | 53 | 170 | 4.0 | 15.0 | 0.00 | 0.00 | 0.00 | 83 | 1012.0 |
| 20260505025746 | 53 | 122 | 4.0 | 11.0 | 0.00 | 0.00 | 0.00 | 82 | 1012.0 |
| 20260505025239 | 53 | 174 | 5.0 | 11.0 | 0.00 | 0.00 | 0.00 | 82 | 1011.9 |
| 20260505024741 | 53 | 243 | 4.0 | 14.0 | 0.00 | 0.00 | 0.00 | 82 | 1012.1 |
| 20260505024238 | 53 | 275 | 4.0 | 15.0 | 0.00 | 0.00 | 0.00 | 82 | 1012.1 |
| 20260505023738 | 53 | 202 | 5.0 | 17.0 | 0.00 | 0.00 | 0.00 | 81 | 1012.1 |
| 20260505023236 | 53 | 220 | 4.0 | 17.0 | 0.00 | 0.00 | 0.00 | 81 | 1012.0 |
| 20260505022736 | 53 | 148 | 4.0 | 13.0 | 0.00 | 0.00 | 0.00 | 81 | 1012.1 |
| 20260505022237 | 53 | 151 | 5.0 | 14.0 | 0.00 | 0.00 | 0.00 | 80 | 1012.0 |
| 20260505021735 | 53 | 215 | 5.0 | 14.0 | 0.00 | 0.00 | 0.00 | 80 | 1012.0 |
| 20260505021233 | 53 | 140 | 5.0 | 14.0 | 0.00 | 0.00 | 0.00 | 80 | 1012.0 |
| 20260505020735 | 53 | 204 | 5.0 | 14.0 | 0.00 | 0.00 | 0.00 | 80 | 1012.0 |
| 20260505020235 | 53 | 166 | 5.0 | 14.0 | 0.00 | 0.00 | 0.00 | 80 | 1011.8 |
| 20260505015731 | 53 | 161 | 5.0 | 13.0 | 0.00 | 0.00 | 0.00 | 80 | 1011.8 |
| 20260505015234 | 54 | 204 | 5.0 | 19.0 | 0.00 | 0.00 | 0.00 | 80 | 1011.8 |
| 20260505014731 | 54 | 184 | 5.0 | 19.0 | 0.00 | 0.00 | 0.00 | 80 | 1011.8 |
| 20260505014231 | 54 | 178 | 6.0 | 15.0 | 0.00 | 0.00 | 0.00 | 79 | 1011.7 |
| 20260505013731 | 54 | 155 | 6.0 | 16.0 | 0.00 | 0.00 | 0.00 | 79 | 1011.8 |
| 20260505013229 | 54 | 205 | 5.0 | 16.0 | 0.00 | 0.00 | 0.00 | 79 | 1011.6 |
| 20260505012729 | 54 | 119 | 6.0 | 15.0 | 0.00 | 0.00 | 0.00 | 78 | 1011.5 |